FW8513 Weather Reports


time (UTC)temp
F
wind
direction
speed
knots
gust
knots
rain 1hr
in
rain 24hr
in
rain mn
in
humidity
%
barometer
mb
20260906233041 60 43 7.0 11.3 0.00 1.52 1.35 75 1017.1
20260906231548 61 48 6.1 10.4 0.00 1.52 1.35 73 1017.2
20260906230043 62 24 7.8 12.2 0.00 1.52 1.35 72 1017.2
20260906224545 61 27 5.2 10.4 0.00 1.52 1.35 71 1017.2
20260906223049 61 17 7.0 11.3 0.00 1.52 1.35 71 1017.0
20260906221547 60 28 6.1 10.4 0.00 1.52 1.35 72 1017.6
20260906220041 60 33 4.3 8.7 0.00 1.52 1.35 73 1017.6
20260906214543 60 15 5.2 9.6 0.00 1.52 1.35 73 1017.5
20260906213046 60 44 5.2 9.6 0.00 1.52 1.35 71 1017.5
20260906211545 60 24 5.2 9.6 0.00 1.52 1.35 72 1017.3
20260906210045 59 25 6.1 10.4 0.00 1.52 1.35 71 1017.4
20260906204602 59 23 5.2 10.4 0.00 1.52 1.35 72 1017.5
20260906203046 58 23 6.1 9.6 0.00 1.52 1.35 74 1017.5
20260906201543 58 25 6.1 10.4 0.00 1.52 1.35 75 1017.6
20260906200049 58 41 6.1 10.4 0.00 1.52 1.35 75 1017.8
20260906194546 57 32 5.2 10.4 0.00 1.53 1.35 76 1017.7
20260906193043 57 47 6.1 9.6 0.00 1.53 1.35 76 1017.9
20260906191551 57 19 5.2 9.6 0.00 1.53 1.35 76 1018.1
20260906184546 57 28 5.2 10.4 0.00 1.53 1.35 76 1018.1
20260906183105 57 5 5.2 12.2 0.00 1.53 1.35 76 1018.3
20260906181544 57 40 6.1 13.9 0.00 1.53 1.35 75 1018.3
20260906180100 57 46 7.0 13.0 0.01 1.53 1.35 78 1018.2
20260906174550 55 58 7.0 13.0 0.01 1.53 1.35 82 1018.3
20260906173048 55 66 8.7 13.9 0.01 1.53 1.35 83 1018.3
20260906171544 54 63 7.8 13.0 0.01 1.53 1.35 86 1018.6
20260906170110 54 55 7.8 13.0 0.02 1.52 1.34 88 1018.6
20260906164552 54 63 7.0 13.9 0.05 1.52 1.34 89 1018.6
20260906163049 53 33 7.8 11.3 0.06 1.52 1.34 89 1018.7
20260906161544 53 30 4.3 7.8 0.06 1.52 1.34 89 1019.3
20260906160050 53 304 3.5 7.0 0.04 1.50 1.32 89 1020.5
20260906154547 53 70 3.5 7.0 0.01 1.48 1.29 89 1019.4
20260906153043 53 53 4.3 9.6 0.00 1.47 1.28 89 1019.3
20260906151607 52 45 5.2 7.8 0.00 1.47 1.28 89 1019.3
20260906150057 52 31 3.5 7.8 0.01 1.47 1.28 89 1019.7
20260906144549 52 24 2.6 7.0 0.03 1.47 1.28 89 1020.1
20260906143105 52 321 4.3 7.8 0.08 1.47 1.28 89 1020.3
20260906141543 52 321 4.3 7.8 0.12 1.47 1.28 89 1020.4
20260906140051 52 294 6.1 9.6 0.28 1.46 1.27 89 1020.9
20260906134553 52 265 7.8 10.4 0.31 1.46 1.24 89 1021.4
20260906133044 52 268 7.8 11.3 0.27 1.42 1.20 89 1021.0
20260906131549 52 301 7.0 12.2 0.23 1.38 1.16 89 1020.7
20260906130049 52 302 10.4 15.6 0.05 1.20 0.98 89 1021.0
20260906124548 52 21 3.5 7.8 0.01 1.16 0.93 89 1019.3
20260906123114 52 20 4.3 8.7 0.08 1.16 0.93 89 1019.6
20260906121553 52 11 5.2 11.3 0.09 1.16 0.93 89 1020.0
20260906120050 52 13 5.2 10.4 0.09 1.16 0.93 89 1020.5
20260906114547 52 14 7.0 11.3 0.08 1.16 0.92 89 1020.6
20260906113046 52 324 6.1 16.5 0.01 1.10 0.85 89 1022.0
20260906111545 52 296 15.6 28.7 0.12 0.88 0.63 89 1021.4
20260906110046 52 346 10.4 15.6 0.02 0.78 0.52 89 1019.5
20260906104548 52 331 8.7 13.0 0.02 0.78 0.52 89 1019.6
20260906103048 52 334 8.7 13.0 0.01 0.77 0.52 89 1020.1
20260906101545 52 340 9.6 14.8 0.00 0.76 0.51 89 1020.0
20260906100048 51 355 8.7 13.9 0.04 0.76 0.51 89 1020.0
20260906094549 51 347 7.8 12.2 0.06 0.76 0.51 89 1020.3
20260906093051 51 5 6.1 12.2 0.08 0.76 0.51 89 1019.9
20260906091602 51 13 7.8 11.3 0.11 0.75 0.50 88 1019.9
20260906090051 51 38 8.7 17.4 0.19 0.72 0.47 88 1020.2
20260906084544 51 26 11.3 16.5 0.21 0.70 0.45 88 1019.8
20260906083053 52 69 7.0 12.2 0.22 0.68 0.43 88 1020.3
20260906081546 52 36 8.7 13.0 0.21 0.64 0.39 88 1021.3
20260906080047 52 341 4.3 7.8 0.16 0.52 0.28 88 1022.0
20260906074550 52 53 4.3 8.7 0.17 0.49 0.24 88 1021.4
20260906073048 52 41 6.1 10.4 0.15 0.46 0.21 87 1021.5
20260906071544 52 31 5.2 9.6 0.13 0.43 0.18 87 1022.1
20260906070055 52 50 3.5 7.8 0.10 0.36 0.11 87 1022.0
20260906064549 52 46 5.2 11.3 0.09 0.32 0.07 87 1022.1
20260906063050 52 58 7.8 13.0 0.11 0.31 0.06 87 1022.1
20260906061544 52 38 7.8 13.0 0.14 0.29 0.04 86 1021.7
20260906060055 52 31 7.0 11.3 0.15 0.26 0.01 86 1022.5
20260906054549 52 349 5.2 9.6 0.13 0.23 0.23 85 1023.4
20260906053058 53 336 7.0 10.4 0.10 0.20 0.20 85 1023.2
20260906051556 53 337 5.2 7.8 0.05 0.15 0.15 84 1023.0
20260906050051 54 26 3.5 7.0 0.01 0.11 0.11 83 1022.7
20260906044549 54 20 3.5 8.7 0.00 0.12 0.10 83 1022.3
20260906043046 54 24 5.2 10.4 0.01 0.12 0.10 82 1021.9
20260906041558 54 19 6.1 11.3 0.02 0.12 0.10 81 1021.9
20260906040050 54 24 7.8 13.0 0.02 0.12 0.10 79 1021.5
20260906034543 55 22 7.8 12.2 0.02 0.12 0.10 78 1021.6
20260906033050 56 31 4.3 9.6 0.01 0.11 0.09 75 1022.0
20260906031550 57 11 6.1 8.7 0.00 0.10 0.08 71 1021.9
20260906030051 57 5 6.1 9.6 0.00 0.10 0.08 69 1021.6
20260906024546 58 33 5.2 9.6 0.00 0.10 0.08 68 1020.8
20260906023050 58 26 6.1 10.4 0.00 0.10 0.08 67 1020.6
20260906021558 58 40 5.2 10.4 0.00 0.10 0.08 66 1020.4
20260906020104 59 11 6.1 12.2 0.00 0.10 0.08 65 1020.5
20260906014543 60 17 6.1 9.6 0.00 0.10 0.08 64 1020.6
20260906013056 60 26 7.0 11.3 0.00 0.10 0.08 62 1020.5
20260906011559 61 339 7.0 12.2 0.00 0.10 0.08 61 1020.3
20260906010044 62 24 7.0 13.0 0.00 0.10 0.08 60 1020.3
20260906004558 63 36 7.8 13.0 0.00 0.10 0.08 58 1020.3
20260906003046 63 34 6.1 12.2 0.00 0.10 0.08 58 1020.2
20260906001546 64 54 5.2 9.6 0.00 0.10 0.08 58 1020.3
20260906000052 64 28 7.0 11.3 0.00 0.10 0.08 57 1020.3
20260905234550 64 22 6.1 9.6 0.00 0.10 0.08 59 1020.4